Αρχική σελίδα
METAR-TAF:

METAR-TAF

Αεροδρόμια :

Independence, Κάνσας, Ηνωμένες Πολιτείες Αμερικής

γεωγραφικό πλάτος: 37-09-30N, γεωγραφικό μήκος: 095-46-42W, υψόμετρο: 251 μ

Παρών καιρός

Η αναφορά έγινε 34 λεπτά πριν, στις 15:55 UTC
Άνεμος 15 kt από Α
Θερμοκρασία 11°C
Υγρασία 43%
Πίεση 1030 hPa
Ορατότητα: 16.1 χλμ
Καθαρός ουρανός

METAR: KIDP 181555Z AUTO 08015KT 10SM CLR 11/M01 A3043 RMK AO2 T01141013

Χρόνος: 11:29 (16:29 UTC)


TAF: λείπει

Μετεωρολογικές αναφορές και προγνώσεις για περισσότερα από 4000 αεροδρόμια (δελτία METAR και TAF).

Οι διαθέσιμοι σταθμοί απεικονίζονται στο χάρτη με κίτρινες και κόκκινες κουκκίδες.

Μετακινήστε το ποντίκι πάνω από τις κουκκίδες για να δείτε το όνομα του σταθμού.

Στη συνέχεια, κάντε κλικ για να δείτε τις μετεωρολογικές αναφορές και τις προγνώσεις καιρού.

Για να αλλάξετε το χάρτη: κάντε κλικ στα πράσινα κουμπιά με τον μαύρο σταυρό για να ζουμάρετε, στο πράσινο κουμπί με την παύλα για να αφαιρέσετε το ζουμ ή στα πράσινα βέλη για να αντιπαραβάλλετε χάρτες.


METAR-TAF: